Shawnee, OK

9:55 PM CST on December 15, 2017 (GMT -0600)
Shawnee Municipal

Weather History for KSNL - January, 2012

Change the Weather History Date:

Sunday, January 15, 2012

  Actual Average (KTIK) Record (KTIK)
Temperature  
Mean Temperature 58 °F -  
Max Temperature 62 °F 46 °F 66 °F (2000)
Min Temperature 53 °F 27 °F 14 °F (2007)
Degree Days  
Heating Degree Days 8    
Growing Degree Days 8 (Base 50)    
Moisture  
Dew Point 35 °F    
Average Humidity 46    
Maximum Humidity 72    
Minimum Humidity 27    
Precipitation  
Precipitation 0.00 in - - ()
Sea Level Pressure  
Sea Level Pressure 30.01 in    
Wind  
Wind Speed 16 mph (South)    
Max Wind Speed 23 mph    
Max Gust Speed 31 mph    
Visibility 10 miles    
Events      
Averages and records for this station are not official NWS values.
T = Trace of Precipitation, MM = Missing Value Source: NWS Daily Summary

Daily Weather History Graph

Daily Weather History Graph

Search for Another Location

Airport or City:

Trip Planner

Search our weather history database for the weather conditions in past years. The results will help you decide how hot, cold, wet, or windy it might be!

Date:

Astronomy

Jan. 15, 2012 Rise Set
Actual Time 7:36 AM CST 5:38 PM CST
Civil Twilight 7:08 AM CST 6:05 PM CST
Nautical Twilight 6:37 AM CST 6:37 PM CST
Astronomical Twilight 6:06 AM CST 7:07 PM CST
Moon No Moon Rise 11:12 AM CST (1/15)
Length of Visible Light 10h 57m
Length of Day
10h 01m
Waning Gibbous, 57% of the Moon is Illuminated
Jan 15
Waning Gibbous
Jan 16
Last Quarter
Jan 23
New
Jan 30
First Quarter
Feb 7
Full

Hourly Weather History & Observations

Time (CST) Temp. Dew Point Humidity Pressure Visibility Wind Dir Wind Speed Gust Speed Precip Events Conditions
11:15 AM 55.4 °F 28.4 °F 36% 30.15 in 10.0 mi South 13.8 mph 19.6 mph N/A   Clear
11:35 AM 57.2 °F 28.4 °F 33% 30.14 in 10.0 mi SSW 15.0 mph - N/A   Clear
11:55 AM 55.4 °F 26.6 °F 33% 30.13 in 10.0 mi South 13.8 mph 20.7 mph N/A   Clear
12:15 PM 60.8 °F 26.6 °F 27% 30.12 in 10.0 mi South 19.6 mph 26.5 mph N/A   Clear
12:55 PM 62.6 °F 28.4 °F 27% 30.09 in 10.0 mi South 18.4 mph 25.3 mph N/A   Clear
1:15 PM 59.0 °F 26.6 °F 29% 30.08 in 10.0 mi SSW 15.0 mph 25.3 mph N/A   Clear
1:35 PM 59.0 °F 28.4 °F 31% 30.06 in 10.0 mi South 17.3 mph 21.9 mph N/A   Clear
1:55 PM 57.2 °F 30.2 °F 36% 30.05 in 10.0 mi South 18.4 mph 26.5 mph N/A   Clear
2:15 PM 59.0 °F 30.2 °F 34% 30.03 in 10.0 mi South 16.1 mph 28.8 mph N/A   Clear
2:35 PM 59.0 °F 30.2 °F 34% 30.02 in 10.0 mi South 16.1 mph - N/A   Clear
2:55 PM 59.0 °F 30.2 °F 34% 30.02 in 10.0 mi South 16.1 mph 24.2 mph N/A   Clear
3:15 PM 59.0 °F 30.2 °F 34% 30.01 in 10.0 mi South 15.0 mph 23.0 mph N/A   Clear
3:35 PM 59.0 °F 32.0 °F 36% 30.01 in 10.0 mi South 15.0 mph 20.7 mph N/A   Clear
3:55 PM 59.0 °F 32.0 °F 36% 30.01 in 10.0 mi South 12.7 mph 19.6 mph N/A   Clear
4:15 PM 59.0 °F 32.0 °F 36% 29.99 in 10.0 mi South 11.5 mph 19.6 mph N/A   Clear
4:35 PM 60.8 °F 32.0 °F 34% 29.99 in 10.0 mi South 11.5 mph - N/A   Clear
5:15 PM 60.8 °F 32.0 °F 34% 29.98 in 10.0 mi South 19.6 mph 27.6 mph N/A   Clear
5:35 PM 59.0 °F 33.8 °F 39% 29.97 in 10.0 mi South 19.6 mph 25.3 mph N/A   Clear
5:55 PM 59.0 °F 35.6 °F 42% 29.97 in 10.0 mi South 16.1 mph - N/A   Clear
6:15 PM 57.2 °F 35.6 °F 44% 29.97 in 10.0 mi South 17.3 mph 25.3 mph N/A   Clear
6:35 PM 57.2 °F 35.6 °F 44% 29.97 in 10.0 mi South 21.9 mph 31.1 mph N/A   Clear
6:55 PM 55.4 °F 37.4 °F 51% 29.97 in 10.0 mi South 17.3 mph 27.6 mph N/A   Clear
7:15 PM 55.4 °F 37.4 °F 51% 29.98 in 10.0 mi South 13.8 mph 27.6 mph N/A   Clear
7:35 PM 55.4 °F 37.4 °F 51% 29.99 in 10.0 mi South 17.3 mph 25.3 mph N/A   Clear
7:55 PM 55.4 °F 41.0 °F 58% 29.98 in 10.0 mi South 18.4 mph 25.3 mph N/A   Clear
8:15 PM 55.4 °F 39.2 °F 54% 29.98 in 10.0 mi South 16.1 mph 25.3 mph N/A   Clear
8:35 PM 55.4 °F 39.2 °F 54% 29.97 in 10.0 mi South 17.3 mph 28.8 mph N/A   Clear
8:55 PM 53.6 °F 39.2 °F 58% 29.97 in 10.0 mi South 19.6 mph 27.6 mph N/A   Clear
9:15 PM 53.6 °F 41.0 °F 62% 29.97 in 10.0 mi South 17.3 mph 26.5 mph N/A   Clear
9:35 PM 53.6 °F 41.0 °F 62% 29.97 in 10.0 mi South 17.3 mph 23.0 mph N/A   Clear
9:55 PM 55.4 °F 42.8 °F 63% 29.96 in 10.0 mi South 19.6 mph 25.3 mph N/A   Clear
10:15 PM 55.4 °F 42.8 °F 63% 29.96 in 10.0 mi South 16.1 mph 27.6 mph N/A   Clear
10:35 PM 55.4 °F 44.6 °F 67% 29.96 in 10.0 mi South 20.7 mph 26.5 mph N/A   Clear
10:55 PM 55.4 °F 44.6 °F 67% 29.96 in 10.0 mi South 19.6 mph 28.8 mph N/A   Clear
11:15 PM 55.4 °F 44.6 °F 67% 29.95 in 10.0 mi South 19.6 mph 27.6 mph N/A   Clear
11:35 PM 55.4 °F 46.4 °F 72% 29.94 in 10.0 mi South 18.4 mph 26.5 mph N/A   Clear
11:55 PM 55.4 °F 46.4 °F 72% 29.94 in 10.0 mi South 23.0 mph 28.8 mph N/A   Clear